NORTHERN QUEENS  -  Freeze Watch Freeze Watch        SOUTHERN QUEENS  -  Freeze Watch Freeze Watch      

Active alerts

Northern Queens
  Details for Northern Queens Freeze Watch
Southern Queens
  Details for Southern Queens Freeze Watch


WXM80 ListenWXM80 Stop

You find our weather info also at:

UK Metoffice

WeatherCloud

Weather Underground

Northeastern Weather Network

AWEKAS

Citizen Weather Observer Program (CWOP)

HAMweather, WeatherForYou, PWS Weather


Weather Underground History page Text

Daily Summary for January 7, 2018 Units:  Both    English   Metric
« Previous Day
Next Day »
Daily Weekly Monthly Yearly Custom
  High: Low: Average:
Temperature: 18.2 °F /  -7.7 °C 6.0 °F /  -14.4 °C 11.8 °F /  -11.2 °C
Dew Point: 7.3 °F /  -13.7 °C -2.9 °F /  -19.4 °C 1 °F /  -17.2 °C
Humidity: 68 % 50 % 61 %
Wind Speed: 10.7 mph /  17.2 km/h - 3.9 mph /  6.3 km/h
Wind Gust: 20.0 mph /  32.2 km/h - -
Wind:- - West
Pressure: 30.62 in /  1036.8 hPa 30.36 in /  1028 hPa -
Precipitation: 0.00 in /  0 mm    
Historical Graphs
 
 
Tabular Data for January 7, 2018
Time Temperature Dew Point Pressure Wind Wind Speed Wind Gust Humidity Rainfall Rate (Hourly)
00:00 8.4 °F /  -13.1 °C -1.3 °F /  -18.5 °C 30.41 in /  1029.7 hPa NW 8.1 mph /  13 km/h 10.4 mph /  16.7 km/h 64 % 0.00 in /  0 mm
00:07 8.3 °F /  -13.2 °C -1.1 °F /  -18.4 °C 30.41 in /  1029.7 hPa NW 9.5 mph /  15.3 km/h 18.4 mph /  29.6 km/h 65 % 0.00 in /  0 mm
00:12 8.3 °F /  -13.2 °C -1.4 °F /  -18.6 °C 30.41 in /  1029.7 hPa NNW 9.0 mph /  14.5 km/h 15.0 mph /  24.1 km/h 64 % 0.00 in /  0 mm
00:17 8.3 °F /  -13.2 °C -1.1 °F /  -18.4 °C 30.41 in /  1029.7 hPa NW 8.7 mph /  14 km/h 17.3 mph /  27.8 km/h 65 % 0.00 in /  0 mm
00:22 8.3 °F /  -13.2 °C -1.4 °F /  -18.6 °C 30.41 in /  1029.7 hPa NW 4.4 mph /  7.1 km/h 9.2 mph /  14.8 km/h 64 % 0.00 in /  0 mm
00:27 8.3 °F /  -13.2 °C -1.1 °F /  -18.4 °C 30.41 in /  1029.7 hPa North 7.7 mph /  12.4 km/h 13.8 mph /  22.2 km/h 65 % 0.00 in /  0 mm
00:38 8.3 °F /  -13.2 °C -1.4 °F /  -18.6 °C 30.41 in /  1029.7 hPa WNW 2.2 mph /  3.5 km/h 10.4 mph /  16.7 km/h 64 % 0.00 in /  0 mm
00:43 8.3 °F /  -13.2 °C -1.4 °F /  -18.6 °C 30.42 in /  1030 hPa West 8.9 mph /  14.3 km/h 14.0 mph /  22.5 km/h 64 % 0.00 in /  0 mm
00:44 8.3 °F /  -13.2 °C -1.4 °F /  -18.6 °C 30.42 in /  1030 hPa SW 9.5 mph /  15.3 km/h 16.1 mph /  25.9 km/h 64 % 0.00 in /  0 mm
00:49 8.2 °F /  -13.2 °C -1.5 °F /  -18.6 °C 30.42 in /  1030 hPa North 6.5 mph /  10.5 km/h 16.1 mph /  25.9 km/h 64 % 0.00 in /  0 mm
00:54 8.2 °F /  -13.2 °C -1.8 °F /  -18.8 °C 30.42 in /  1030 hPa NW 8.4 mph /  13.5 km/h 18.4 mph /  29.6 km/h 63 % 0.00 in /  0 mm
00:56 8.2 °F /  -13.2 °C -1.5 °F /  -18.6 °C 30.42 in /  1030 hPa NW 8.1 mph /  13 km/h 13.8 mph /  22.2 km/h 64 % 0.00 in /  0 mm
01:02 8.3 °F /  -13.2 °C -1.4 °F /  -18.6 °C 30.42 in /  1030 hPa NW 6.9 mph /  11.1 km/h 16.0 mph /  25.7 km/h 64 % 0.00 in /  0 mm
01:04 8.3 °F /  -13.2 °C -1.4 °F /  -18.6 °C 30.43 in /  1030.4 hPa WNW 10.7 mph /  17.2 km/h 17.3 mph /  27.8 km/h 64 % 0.00 in /  0 mm
01:09 8.3 °F /  -13.2 °C -1.4 °F /  -18.6 °C 30.42 in /  1030 hPa WNW 5.6 mph /  9 km/h 11.5 mph /  18.5 km/h 64 % 0.00 in /  0 mm
01:14 8.3 °F /  -13.2 °C -1.4 °F /  -18.6 °C 30.42 in /  1030 hPa WNW 4.6 mph /  7.4 km/h 6.0 mph /  9.7 km/h 64 % 0.00 in /  0 mm
01:17 8.2 °F /  -13.2 °C -1.5 °F /  -18.6 °C 30.42 in /  1030 hPa WNW 4.0 mph /  6.4 km/h 11.5 mph /  18.5 km/h 64 % 0.00 in /  0 mm
01:20 8.2 °F /  -13.2 °C -1.5 °F /  -18.6 °C 30.43 in /  1030.4 hPa NNW 5.1 mph /  8.2 km/h 10.4 mph /  16.7 km/h 64 % 0.00 in /  0 mm
01:25 8.2 °F /  -13.2 °C -1.8 °F /  -18.8 °C 30.43 in /  1030.4 hPa NW 7.6 mph /  12.2 km/h 13.8 mph /  22.2 km/h 63 % 0.00 in /  0 mm
01:30 8.2 °F /  -13.2 °C -1.8 °F /  -18.8 °C 30.43 in /  1030.4 hPa NW 7.2 mph /  11.6 km/h 11.5 mph /  18.5 km/h 63 % 0.00 in /  0 mm
01:35 8.2 °F /  -13.2 °C -1.5 °F /  -18.6 °C 30.43 in /  1030.4 hPa North 5.2 mph /  8.4 km/h 11.5 mph /  18.5 km/h 64 % 0.00 in /  0 mm
01:40 8.2 °F /  -13.2 °C -1.5 °F /  -18.6 °C 30.44 in /  1030.7 hPa NW 4.3 mph /  6.9 km/h 13.8 mph /  22.2 km/h 64 % 0.00 in /  0 mm
01:45 8.2 °F /  -13.2 °C -1.5 °F /  -18.6 °C 30.44 in /  1030.7 hPa NNW 8.1 mph /  13 km/h 16.1 mph /  25.9 km/h 64 % 0.00 in /  0 mm
01:50 8.2 °F /  -13.2 °C -1.5 °F /  -18.6 °C 30.44 in /  1030.7 hPa NNW 8.9 mph /  14.3 km/h 12.0 mph /  19.3 km/h 64 % 0.00 in /  0 mm
01:56 8.2 °F /  -13.2 °C -1.8 °F /  -18.8 °C 30.45 in /  1031 hPa West 5.7 mph /  9.2 km/h 11.5 mph /  18.5 km/h 63 % 0.00 in /  0 mm
02:01 8.1 °F /  -13.3 °C -1.9 °F /  -18.8 °C 30.46 in /  1031.4 hPa WNW 6.3 mph /  10.1 km/h 12.7 mph /  20.4 km/h 63 % 0.00 in /  0 mm
02:06 8.1 °F /  -13.3 °C -1.6 °F /  -18.7 °C 30.46 in /  1031.4 hPa NW 7.0 mph /  11.3 km/h 20.0 mph /  32.2 km/h 64 % 0.00 in /  0 mm
02:11 8.1 °F /  -13.3 °C -1.6 °F /  -18.7 °C 30.46 in /  1031.4 hPa WNW 5.4 mph /  8.7 km/h 11.5 mph /  18.5 km/h 64 % 0.00 in /  0 mm
02:17 8.1 °F /  -13.3 °C -1.6 °F /  -18.7 °C 30.46 in /  1031.4 hPa NW 5.4 mph /  8.7 km/h 6.0 mph /  9.7 km/h 64 % 0.00 in /  0 mm
02:22 8.1 °F /  -13.3 °C -1.6 °F /  -18.7 °C 30.47 in /  1031.7 hPa NW 5.7 mph /  9.2 km/h 9.0 mph /  14.5 km/h 64 % 0.00 in /  0 mm
02:27 8.0 °F /  -13.3 °C -2.0 °F /  -18.9 °C 30.47 in /  1031.7 hPa NW 4.7 mph /  7.6 km/h 9.2 mph /  14.8 km/h 63 % 0.00 in /  0 mm
02:32 7.9 °F /  -13.4 °C -2.1 °F /  -18.9 °C 30.48 in /  1032.1 hPa North 7.9 mph /  12.7 km/h 14.0 mph /  22.5 km/h 63 % 0.00 in /  0 mm
02:37 7.9 °F /  -13.4 °C -2.1 °F /  -18.9 °C 30.48 in /  1032.1 hPa WNW 4.4 mph /  7.1 km/h 11.5 mph /  18.5 km/h 63 % 0.00 in /  0 mm
02:42 8.0 °F /  -13.3 °C -1.7 °F /  -18.7 °C 30.48 in /  1032.1 hPa NW 6.9 mph /  11.1 km/h 9.2 mph /  14.8 km/h 64 % 0.00 in /  0 mm
02:44 8.0 °F /  -13.3 °C -1.7 °F /  -18.7 °C 30.48 in /  1032.1 hPa NNW 8.6 mph /  13.8 km/h 15.0 mph /  24.1 km/h 64 % 0.00 in /  0 mm
02:49 7.9 °F /  -13.4 °C -1.8 °F /  -18.8 °C 30.48 in /  1032.1 hPa NNW 6.4 mph /  10.3 km/h 12.0 mph /  19.3 km/h 64 % 0.00 in /  0 mm
02:58 7.8 °F /  -13.4 °C -1.9 °F /  -18.8 °C 30.48 in /  1032.1 hPa NW 6.6 mph /  10.6 km/h 11.5 mph /  18.5 km/h 64 % 0.00 in /  0 mm
03:04 7.8 °F /  -13.4 °C -1.9 °F /  -18.8 °C 30.48 in /  1032.1 hPa NW 5.1 mph /  8.2 km/h 11.5 mph /  18.5 km/h 64 % 0.00 in /  0 mm
03:09 7.8 °F /  -13.4 °C -1.9 °F /  -18.8 °C 30.48 in /  1032.1 hPa NNW 6.3 mph /  10.1 km/h 10.4 mph /  16.7 km/h 64 % 0.00 in /  0 mm
03:14 7.8 °F /  -13.4 °C -1.9 °F /  -18.8 °C 30.48 in /  1032.1 hPa NNW 3.8 mph /  6.1 km/h 13.8 mph /  22.2 km/h 64 % 0.00 in /  0 mm
03:19 7.7 °F /  -13.5 °C -1.6 °F /  -18.7 °C 30.48 in /  1032.1 hPa WNW 7.4 mph /  11.9 km/h 11.5 mph /  18.5 km/h 65 % 0.00 in /  0 mm
03:22 7.7 °F /  -13.5 °C -1.6 °F /  -18.7 °C 30.48 in /  1032.1 hPa NW 5.1 mph /  8.2 km/h 11.5 mph /  18.5 km/h 65 % 0.00 in /  0 mm
03:27 7.7 °F /  -13.5 °C -1.3 °F /  -18.5 °C 30.48 in /  1032.1 hPa NW 6.9 mph /  11.1 km/h 13.8 mph /  22.2 km/h 66 % 0.00 in /  0 mm
03:33 7.6 °F /  -13.6 °C -1.7 °F /  -18.7 °C 30.49 in /  1032.4 hPa WNW 4.4 mph /  7.1 km/h 11.5 mph /  18.5 km/h 65 % 0.00 in /  0 mm
03:35 7.6 °F /  -13.6 °C -1.7 °F /  -18.7 °C 30.49 in /  1032.4 hPa NNW 7.9 mph /  12.7 km/h 13.8 mph /  22.2 km/h 65 % 0.00 in /  0 mm
03:41 7.4 °F /  -13.7 °C -2.2 °F /  -19 °C 30.49 in /  1032.4 hPa WNW 7.0 mph /  11.3 km/h 14.0 mph /  22.5 km/h 64 % 0.00 in /  0 mm
03:46 7.4 °F /  -13.7 °C -2.2 °F /  -19 °C 30.49 in /  1032.4 hPa NW 5.0 mph /  8 km/h 10.0 mph /  16.1 km/h 64 % 0.00 in /  0 mm
03:47 7.3 °F /  -13.7 °C -2.0 °F /  -18.9 °C 30.49 in /  1032.4 hPa NW 5.1 mph /  8.2 km/h 10.4 mph /  16.7 km/h 65 % 0.00 in /  0 mm
03:52 7.3 °F /  -13.7 °C -2.0 °F /  -18.9 °C 30.50 in /  1032.7 hPa West 4.3 mph /  6.9 km/h 7.0 mph /  11.3 km/h 65 % 0.00 in /  0 mm
03:57 7.2 °F /  -13.8 °C -2.4 °F /  -19.1 °C 30.50 in /  1032.7 hPa WNW 4.8 mph /  7.7 km/h 11.5 mph /  18.5 km/h 64 % 0.00 in /  0 mm
04:02 7.1 °F /  -13.8 °C -2.5 °F /  -19.2 °C 30.50 in /  1032.7 hPa WNW 4.4 mph /  7.1 km/h 7.0 mph /  11.3 km/h 64 % 0.00 in /  0 mm
04:08 7.1 °F /  -13.8 °C -2.2 °F /  -19 °C 30.50 in /  1032.7 hPa NNW 5.8 mph /  9.3 km/h 11.5 mph /  18.5 km/h 65 % 0.00 in /  0 mm
04:13 7.1 °F /  -13.8 °C -2.2 °F /  -19 °C 30.50 in /  1032.7 hPa WNW 4.0 mph /  6.4 km/h 8.1 mph /  13 km/h 65 % 0.00 in /  0 mm
04:14 7.1 °F /  -13.8 °C -2.2 °F /  -19 °C 30.50 in /  1032.7 hPa NW 5.2 mph /  8.4 km/h 12.0 mph /  19.3 km/h 65 % 0.00 in /  0 mm
04:19 7.1 °F /  -13.8 °C -2.5 °F /  -19.2 °C 30.51 in /  1033.1 hPa NW 5.7 mph /  9.2 km/h 11.5 mph /  18.5 km/h 64 % 0.00 in /  0 mm
04:25 7.1 °F /  -13.8 °C -2.2 °F /  -19 °C 30.51 in /  1033.1 hPa WNW 3.0 mph /  4.8 km/h 3.5 mph /  5.6 km/h 65 % 0.00 in /  0 mm
04:30 7.0 °F /  -13.9 °C -2.3 °F /  -19.1 °C 30.51 in /  1033.1 hPa NNW 1.3 mph /  2.1 km/h 4.6 mph /  7.4 km/h 65 % 0.00 in /  0 mm
04:35 6.9 °F /  -13.9 °C -2.4 °F /  -19.1 °C 30.51 in /  1033.1 hPa NW 5.9 mph /  9.5 km/h 11.5 mph /  18.5 km/h 65 % 0.00 in /  0 mm
04:36 6.9 °F /  -13.9 °C -2.7 °F /  -19.3 °C 30.51 in /  1033.1 hPa WNW 2.8 mph /  4.5 km/h 5.8 mph /  9.3 km/h 64 % 0.00 in /  0 mm
04:42 6.8 °F /  -14 °C -2.5 °F /  -19.2 °C 30.51 in /  1033.1 hPa NW 6.5 mph /  10.5 km/h 9.2 mph /  14.8 km/h 65 % 0.00 in /  0 mm
04:45 6.8 °F /  -14 °C -2.5 °F /  -19.2 °C 30.51 in /  1033.1 hPa West 2.2 mph /  3.5 km/h 5.8 mph /  9.3 km/h 65 % 0.00 in /  0 mm
04:51 6.7 °F /  -14.1 °C -2.6 °F /  -19.2 °C 30.51 in /  1033.1 hPa WNW 7.0 mph /  11.3 km/h 12.0 mph /  19.3 km/h 65 % 0.00 in /  0 mm
04:54 6.7 °F /  -14.1 °C -2.3 °F /  -19.1 °C 30.51 in /  1033.1 hPa North 6.4 mph /  10.3 km/h 11.5 mph /  18.5 km/h 66 % 0.00 in /  0 mm
04:59 6.7 °F /  -14.1 °C -2.3 °F /  -19.1 °C 30.51 in /  1033.1 hPa WNW 4.0 mph /  6.4 km/h 11.5 mph /  18.5 km/h 66 % 0.00 in /  0 mm
05:02 6.7 °F /  -14.1 °C -2.3 °F /  -19.1 °C 30.51 in /  1033.1 hPa WNW 5.4 mph /  8.7 km/h 9.0 mph /  14.5 km/h 66 % 0.00 in /  0 mm
05:07 6.7 °F /  -14.1 °C -2.3 °F /  -19.1 °C 30.52 in /  1033.4 hPa NNW 3.0 mph /  4.8 km/h 12.7 mph /  20.4 km/h 66 % 0.00 in /  0 mm
05:11 6.8 °F /  -14 °C -1.8 °F /  -18.8 °C 30.52 in /  1033.4 hPa NW 2.5 mph /  4 km/h 6.9 mph /  11.1 km/h 67 % 0.00 in /  0 mm
05:17 6.7 °F /  -14.1 °C -1.9 °F /  -18.8 °C 30.52 in /  1033.4 hPa NW 6.4 mph /  10.3 km/h 12.7 mph /  20.4 km/h 67 % 0.00 in /  0 mm
05:22 6.7 °F /  -14.1 °C -2.6 °F /  -19.2 °C 30.52 in /  1033.4 hPa WNW 8.2 mph /  13.2 km/h 13.8 mph /  22.2 km/h 65 % 0.00 in /  0 mm
05:28 6.7 °F /  -14.1 °C -2.3 °F /  -19.1 °C 30.51 in /  1033.1 hPa NW 4.5 mph /  7.2 km/h 10.4 mph /  16.7 km/h 66 % 0.00 in /  0 mm
05:38 6.6 °F /  -14.1 °C -2.0 °F /  -18.9 °C 30.53 in /  1033.7 hPa WNW 3.7 mph /  6 km/h 10.4 mph /  16.7 km/h 67 % 0.00 in /  0 mm
05:41 6.6 °F /  -14.1 °C -2.0 °F /  -18.9 °C 30.53 in /  1033.7 hPa NW 3.0 mph /  4.8 km/h 12.0 mph /  19.3 km/h 67 % 0.00 in /  0 mm
05:46 6.5 °F /  -14.2 °C -2.1 °F /  -18.9 °C 30.53 in /  1033.7 hPa NW 5.4 mph /  8.7 km/h 8.1 mph /  13 km/h 67 % 0.00 in /  0 mm
05:50 6.5 °F /  -14.2 °C -2.1 °F /  -18.9 °C 30.54 in /  1034.1 hPa WNW 3.5 mph /  5.6 km/h 5.8 mph /  9.3 km/h 67 % 0.00 in /  0 mm
05:55 6.5 °F /  -14.2 °C -2.1 °F /  -18.9 °C 30.54 in /  1034.1 hPa NW 2.3 mph /  3.7 km/h 3.5 mph /  5.6 km/h 67 % 0.00 in /  0 mm
06:00 6.4 °F /  -14.2 °C -2.2 °F /  -19 °C 30.53 in /  1033.7 hPa NW 6.5 mph /  10.5 km/h 11.5 mph /  18.5 km/h 67 % 0.00 in /  0 mm
06:05 6.3 °F /  -14.3 °C -2.6 °F /  -19.2 °C 30.53 in /  1033.7 hPa WNW 2.1 mph /  3.4 km/h 5.8 mph /  9.3 km/h 66 % 0.00 in /  0 mm
06:10 6.2 °F /  -14.3 °C -2.4 °F /  -19.1 °C 30.53 in /  1033.7 hPa NNW 5.5 mph /  8.9 km/h 7.0 mph /  11.3 km/h 67 % 0.00 in /  0 mm
06:12 6.2 °F /  -14.3 °C -2.4 °F /  -19.1 °C 30.53 in /  1033.7 hPa NW 4.0 mph /  6.4 km/h 8.1 mph /  13 km/h 67 % 0.00 in /  0 mm
06:17 6.1 °F /  -14.4 °C -2.5 °F /  -19.2 °C 30.53 in /  1033.7 hPa WNW 5.8 mph /  9.3 km/h 10.4 mph /  16.7 km/h 67 % 0.00 in /  0 mm
06:20 6.1 °F /  -14.4 °C -2.5 °F /  -19.2 °C 30.53 in /  1033.7 hPa NW 2.9 mph /  4.7 km/h 5.8 mph /  9.3 km/h 67 % 0.00 in /  0 mm
06:23 6.1 °F /  -14.4 °C -2.2 °F /  -19 °C 30.54 in /  1034.1 hPa NNW 3.6 mph /  5.8 km/h 7.0 mph /  11.3 km/h 68 % 0.00 in /  0 mm
06:28 6.1 °F /  -14.4 °C -2.2 °F /  -19 °C 30.54 in /  1034.1 hPa North 4.1 mph /  6.6 km/h 7.0 mph /  11.3 km/h 68 % 0.00 in /  0 mm
06:33 6.1 °F /  -14.4 °C -2.2 °F /  -19 °C 30.55 in /  1034.4 hPa NNW 5.7 mph /  9.2 km/h 11.5 mph /  18.5 km/h 68 % 0.00 in /  0 mm
06:38 6.2 °F /  -14.3 °C -2.4 °F /  -19.1 °C 30.55 in /  1034.4 hPa NW 5.4 mph /  8.7 km/h 11.5 mph /  18.5 km/h 67 % 0.00 in /  0 mm
06:42 6.3 °F /  -14.3 °C -2.3 °F /  -19.1 °C 30.55 in /  1034.4 hPa North 3.8 mph /  6.1 km/h 8.0 mph /  12.9 km/h 67 % 0.00 in /  0 mm
06:47 6.3 °F /  -14.3 °C -2.3 °F /  -19.1 °C 30.56 in /  1034.8 hPa WNW 5.2 mph /  8.4 km/h 11.5 mph /  18.5 km/h 67 % 0.00 in /  0 mm
06:52 6.4 °F /  -14.2 °C -2.2 °F /  -19 °C 30.56 in /  1034.8 hPa NW 7.0 mph /  11.3 km/h 7.0 mph /  11.3 km/h 67 % 0.00 in /  0 mm
06:54 6.4 °F /  -14.2 °C -2.2 °F /  -19 °C 30.56 in /  1034.8 hPa WNW 4.3 mph /  6.9 km/h 6.9 mph /  11.1 km/h 67 % 0.00 in /  0 mm
06:55 6.4 °F /  -14.2 °C -2.2 °F /  -19 °C 30.56 in /  1034.8 hPa NW 4.3 mph /  6.9 km/h 6.9 mph /  11.1 km/h 67 % 0.00 in /  0 mm
07:00 6.4 °F /  -14.2 °C -2.2 °F /  -19 °C 30.56 in /  1034.8 hPa NW 2.7 mph /  4.3 km/h 4.6 mph /  7.4 km/h 67 % 0.00 in /  0 mm
07:05 6.4 °F /  -14.2 °C -2.5 °F /  -19.2 °C 30.56 in /  1034.8 hPa NW 2.1 mph /  3.4 km/h 4.6 mph /  7.4 km/h 66 % 0.00 in /  0 mm
07:09 6.3 °F /  -14.3 °C -2.6 °F /  -19.2 °C 30.56 in /  1034.8 hPa WNW 1.9 mph /  3.1 km/h 3.5 mph /  5.6 km/h 66 % 0.00 in /  0 mm
07:11 6.3 °F /  -14.3 °C -2.6 °F /  -19.2 °C 30.56 in /  1034.8 hPa WNW 1.2 mph /  1.9 km/h 3.5 mph /  5.6 km/h 66 % 0.00 in /  0 mm
07:16 6.2 °F /  -14.3 °C -2.7 °F /  -19.3 °C 30.56 in /  1034.8 hPa WNW 1.3 mph /  2.1 km/h 4.0 mph /  6.4 km/h 66 % 0.00 in /  0 mm
07:21 6.1 °F /  -14.4 °C -2.8 °F /  -19.3 °C 30.56 in /  1034.8 hPa West 2.4 mph /  3.9 km/h 8.1 mph /  13 km/h 66 % 0.00 in /  0 mm
07:26 6.0 °F /  -14.4 °C -2.9 °F /  -19.4 °C 30.56 in /  1034.8 hPa NW 3.2 mph /  5.1 km/h 7.0 mph /  11.3 km/h 66 % 0.00 in /  0 mm
07:31 6.0 °F /  -14.4 °C -2.6 °F /  -19.2 °C 30.57 in /  1035.1 hPa NW 2.3 mph /  3.7 km/h 4.6 mph /  7.4 km/h 67 % 0.00 in /  0 mm
07:36 6.0 °F /  -14.4 °C -2.6 °F /  -19.2 °C 30.57 in /  1035.1 hPa NW 2.8 mph /  4.5 km/h 3.5 mph /  5.6 km/h 67 % 0.00 in /  0 mm
07:41 6.1 °F /  -14.4 °C -2.5 °F /  -19.2 °C 30.58 in /  1035.4 hPa NNW 0.5 mph /  0.8 km/h 2.3 mph /  3.7 km/h 67 % 0.00 in /  0 mm
07:47 6.2 °F /  -14.3 °C -2.7 °F /  -19.3 °C 30.58 in /  1035.4 hPa West 1.7 mph /  2.7 km/h 4.6 mph /  7.4 km/h 66 % 0.00 in /  0 mm
07:52 6.2 °F /  -14.3 °C -2.7 °F /  -19.3 °C 30.57 in /  1035.1 hPa North 2.3 mph /  3.7 km/h 4.0 mph /  6.4 km/h 66 % 0.00 in /  0 mm
07:56 6.3 °F /  -14.3 °C -2.6 °F /  -19.2 °C 30.57 in /  1035.1 hPa WNW 0.9 mph /  1.4 km/h 4.6 mph /  7.4 km/h 66 % 0.00 in /  0 mm
08:02 6.4 °F /  -14.2 °C -2.5 °F /  -19.2 °C 30.57 in /  1035.1 hPa NW 3.5 mph /  5.6 km/h 5.8 mph /  9.3 km/h 66 % 0.00 in /  0 mm
08:07 6.6 °F /  -14.1 °C -2.4 °F /  -19.1 °C 30.57 in /  1035.1 hPa West 2.4 mph /  3.9 km/h 4.6 mph /  7.4 km/h 66 % 0.00 in /  0 mm
08:12 6.7 °F /  -14.1 °C -2.3 °F /  -19.1 °C 30.57 in /  1035.1 hPa NW 3.7 mph /  6 km/h 8.1 mph /  13 km/h 66 % 0.00 in /  0 mm
08:16 6.8 °F /  -14 °C -2.2 °F /  -19 °C 30.57 in /  1035.1 hPa NNW 4.2 mph /  6.8 km/h 5.8 mph /  9.3 km/h 66 % 0.00 in /  0 mm
08:21 6.9 °F /  -13.9 °C -2.1 °F /  -18.9 °C 30.58 in /  1035.4 hPa WNW 3.4 mph /  5.5 km/h 5.8 mph /  9.3 km/h 66 % 0.00 in /  0 mm
08:26 7.1 °F /  -13.8 °C -1.9 °F /  -18.8 °C 30.58 in /  1035.4 hPa WNW 1.6 mph /  2.6 km/h 6.0 mph /  9.7 km/h 66 % 0.00 in /  0 mm
08:30 7.2 °F /  -13.8 °C -1.5 °F /  -18.6 °C 30.59 in /  1035.8 hPa NNW 4.4 mph /  7.1 km/h 4.6 mph /  7.4 km/h 67 % 0.00 in /  0 mm
08:35 7.3 °F /  -13.7 °C -1.7 °F /  -18.7 °C 30.59 in /  1035.8 hPa NNW 3.9 mph /  6.3 km/h 8.1 mph /  13 km/h 66 % 0.00 in /  0 mm
08:40 7.5 °F /  -13.6 °C -1.5 °F /  -18.6 °C 30.59 in /  1035.8 hPa NNW 3.4 mph /  5.5 km/h 6.9 mph /  11.1 km/h 66 % 0.00 in /  0 mm
08:45 7.7 °F /  -13.5 °C -1.6 °F /  -18.7 °C 30.60 in /  1036.1 hPa NNW 2.6 mph /  4.2 km/h 4.6 mph /  7.4 km/h 65 % 0.00 in /  0 mm
08:50 7.8 °F /  -13.4 °C -1.5 °F /  -18.6 °C 30.60 in /  1036.1 hPa NW 4.3 mph /  6.9 km/h 5.0 mph /  8 km/h 65 % 0.00 in /  0 mm
08:55 7.9 °F /  -13.4 °C -1.4 °F /  -18.6 °C 30.60 in /  1036.1 hPa NW 3.4 mph /  5.5 km/h 8.1 mph /  13 km/h 65 % 0.00 in /  0 mm
09:00 8.0 °F /  -13.3 °C -1.3 °F /  -18.5 °C 30.60 in /  1036.1 hPa NNW 3.9 mph /  6.3 km/h 8.1 mph /  13 km/h 65 % 0.00 in /  0 mm
09:05 8.2 °F /  -13.2 °C -0.8 °F /  -18.2 °C 30.60 in /  1036.1 hPa NNW 1.7 mph /  2.7 km/h 5.8 mph /  9.3 km/h 66 % 0.00 in /  0 mm
09:11 8.3 °F /  -13.2 °C -0.7 °F /  -18.2 °C 30.60 in /  1036.1 hPa NW 1.7 mph /  2.7 km/h 6.9 mph /  11.1 km/h 66 % 0.00 in /  0 mm
09:16 8.5 °F /  -13.1 °C -0.9 °F /  -18.3 °C 30.60 in /  1036.1 hPa West 3.9 mph /  6.3 km/h 11.5 mph /  18.5 km/h 65 % 0.00 in /  0 mm
09:21 8.7 °F /  -12.9 °C -0.7 °F /  -18.2 °C 30.61 in /  1036.5 hPa NW 4.1 mph /  6.6 km/h 5.8 mph /  9.3 km/h 65 % 0.00 in /  0 mm
09:26 8.9 °F /  -12.8 °C -0.5 °F /  -18.1 °C 30.61 in /  1036.5 hPa WNW 4.6 mph /  7.4 km/h 6.9 mph /  11.1 km/h 65 % 0.00 in /  0 mm
09:31 9.2 °F /  -12.7 °C -0.5 °F /  -18.1 °C 30.61 in /  1036.5 hPa NNW 4.3 mph /  6.9 km/h 7.0 mph /  11.3 km/h 64 % 0.00 in /  0 mm
09:34 9.4 °F /  -12.6 °C -0.3 °F /  -17.9 °C 30.61 in /  1036.5 hPa WNW 3.6 mph /  5.8 km/h 6.0 mph /  9.7 km/h 64 % 0.00 in /  0 mm
09:39 9.8 °F /  -12.3 °C -0.3 °F /  -17.9 °C 30.61 in /  1036.5 hPa WSW 4.6 mph /  7.4 km/h 7.0 mph /  11.3 km/h 63 % 0.00 in /  0 mm
09:42 9.9 °F /  -12.3 °C -0.2 °F /  -17.9 °C 30.61 in /  1036.5 hPa NW 2.5 mph /  4 km/h 7.0 mph /  11.3 km/h 63 % 0.00 in /  0 mm
09:47 10.2 °F /  -12.1 °C -0.2 °F /  -17.9 °C 30.61 in /  1036.5 hPa WNW 1.2 mph /  1.9 km/h 5.8 mph /  9.3 km/h 62 % 0.00 in /  0 mm
09:52 10.4 °F /  -12 °C -0.1 °F /  -17.8 °C 30.62 in /  1036.8 hPa West 4.7 mph /  7.6 km/h 7.0 mph /  11.3 km/h 62 % 0.00 in /  0 mm
09:57 10.7 °F /  -11.8 °C 0.2 °F /  -17.7 °C 30.62 in /  1036.8 hPa WNW 6.1 mph /  9.8 km/h 8.1 mph /  13 km/h 62 % 0.00 in /  0 mm
10:02 11.0 °F /  -11.7 °C 0.2 °F /  -17.7 °C 30.61 in /  1036.5 hPa NW 1.6 mph /  2.6 km/h 3.5 mph /  5.6 km/h 61 % 0.00 in /  0 mm
10:08 11.2 °F /  -11.6 °C 0.0 °F /  -17.8 °C 30.61 in /  1036.5 hPa NNW 3.4 mph /  5.5 km/h 6.9 mph /  11.1 km/h 60 % 0.00 in /  0 mm
10:13 11.3 °F /  -11.5 °C 0.8 °F /  -17.3 °C 30.60 in /  1036.1 hPa NW 2.0 mph /  3.2 km/h 3.5 mph /  5.6 km/h 62 % 0.00 in /  0 mm
10:18 11.6 °F /  -11.3 °C 1.1 °F /  -17.2 °C 30.61 in /  1036.5 hPa WSW 3.0 mph /  4.8 km/h 5.8 mph /  9.3 km/h 62 % 0.00 in /  0 mm
10:24 11.8 °F /  -11.2 °C 0.9 °F /  -17.3 °C 30.61 in /  1036.5 hPa WNW 3.7 mph /  6 km/h 8.1 mph /  13 km/h 61 % 0.00 in /  0 mm
10:27 12.0 °F /  -11.1 °C 0.8 °F /  -17.3 °C 30.61 in /  1036.5 hPa West 2.8 mph /  4.5 km/h 10.4 mph /  16.7 km/h 60 % 0.00 in /  0 mm
10:32 12.2 °F /  -11 °C 0.2 °F /  -17.7 °C 30.60 in /  1036.1 hPa West 2.7 mph /  4.3 km/h 7.0 mph /  11.3 km/h 58 % 0.00 in /  0 mm
10:37 12.4 °F /  -10.9 °C 0.8 °F /  -17.3 °C 30.61 in /  1036.5 hPa West 4.6 mph /  7.4 km/h 8.1 mph /  13 km/h 59 % 0.00 in /  0 mm
10:39 12.4 °F /  -10.9 °C 0.8 °F /  -17.3 °C 30.61 in /  1036.5 hPa West 4.1 mph /  6.6 km/h 6.0 mph /  9.7 km/h 59 % 0.00 in /  0 mm
10:44 12.5 °F /  -10.8 °C 0.9 °F /  -17.3 °C 30.60 in /  1036.1 hPa WSW 1.4 mph /  2.3 km/h 4.0 mph /  6.4 km/h 59 % 0.00 in /  0 mm
10:50 12.6 °F /  -10.8 °C 1.0 °F /  -17.2 °C 30.60 in /  1036.1 hPa WNW 3.6 mph /  5.8 km/h 6.0 mph /  9.7 km/h 59 % 0.00 in /  0 mm
10:55 12.7 °F /  -10.7 °C 1.1 °F /  -17.2 °C 30.59 in /  1035.8 hPa NW 3.6 mph /  5.8 km/h 7.0 mph /  11.3 km/h 59 % 0.00 in /  0 mm
11:00 12.8 °F /  -10.7 °C 0.4 °F /  -17.6 °C 30.59 in /  1035.8 hPa WNW 2.0 mph /  3.2 km/h 7.0 mph /  11.3 km/h 57 % 0.00 in /  0 mm
11:05 12.8 °F /  -10.7 °C 0.4 °F /  -17.6 °C 30.59 in /  1035.8 hPa NNW 6.0 mph /  9.7 km/h 11.5 mph /  18.5 km/h 57 % 0.00 in /  0 mm
11:06 12.8 °F /  -10.7 °C 0.4 °F /  -17.6 °C 30.59 in /  1035.8 hPa NW 3.5 mph /  5.6 km/h 11.5 mph /  18.5 km/h 57 % 0.00 in /  0 mm
11:09 12.7 °F /  -10.7 °C 0.7 °F /  -17.4 °C 30.58 in /  1035.4 hPa NW 1.0 mph /  1.6 km/h 6.9 mph /  11.1 km/h 58 % 0.00 in /  0 mm
11:14 12.6 °F /  -10.8 °C 0.6 °F /  -17.4 °C 30.57 in /  1035.1 hPa WNW 2.1 mph /  3.4 km/h 5.0 mph /  8 km/h 58 % 0.00 in /  0 mm
11:19 12.5 °F /  -10.8 °C 0.5 °F /  -17.5 °C 30.57 in /  1035.1 hPa WNW 3.6 mph /  5.8 km/h 9.2 mph /  14.8 km/h 58 % 0.00 in /  0 mm
11:24 12.4 °F /  -10.9 °C 0.4 °F /  -17.6 °C 30.57 in /  1035.1 hPa West 3.6 mph /  5.8 km/h 8.1 mph /  13 km/h 58 % 0.00 in /  0 mm
11:29 12.3 °F /  -10.9 °C 0.3 °F /  -17.6 °C 30.57 in /  1035.1 hPa West 1.6 mph /  2.6 km/h 4.6 mph /  7.4 km/h 58 % 0.00 in /  0 mm
11:34 12.2 °F /  -11 °C 0.6 °F /  -17.4 °C 30.56 in /  1034.8 hPa WSW 3.6 mph /  5.8 km/h 5.8 mph /  9.3 km/h 59 % 0.00 in /  0 mm
11:40 12.2 °F /  -11 °C 0.2 °F /  -17.7 °C 30.56 in /  1034.8 hPa West 2.5 mph /  4 km/h 3.5 mph /  5.6 km/h 58 % 0.00 in /  0 mm
11:45 12.3 °F /  -10.9 °C -0.1 °F /  -17.8 °C 30.56 in /  1034.8 hPa NW 2.8 mph /  4.5 km/h 9.2 mph /  14.8 km/h 57 % 0.00 in /  0 mm
11:50 12.3 °F /  -10.9 °C 0.3 °F /  -17.6 °C 30.56 in /  1034.8 hPa WNW 2.9 mph /  4.7 km/h 6.0 mph /  9.7 km/h 58 % 0.00 in /  0 mm
11:56 12.4 °F /  -10.9 °C 0.8 °F /  -17.3 °C 30.55 in /  1034.4 hPa WNW 5.1 mph /  8.2 km/h 11.5 mph /  18.5 km/h 59 % 0.00 in /  0 mm
12:01 12.4 °F /  -10.9 °C 0.8 °F /  -17.3 °C 30.56 in /  1034.8 hPa NW 2.2 mph /  3.5 km/h 5.8 mph /  9.3 km/h 59 % 0.00 in /  0 mm
12:06 12.5 °F /  -10.8 °C 0.9 °F /  -17.3 °C 30.56 in /  1034.8 hPa WNW 1.2 mph /  1.9 km/h 2.3 mph /  3.7 km/h 59 % 0.00 in /  0 mm
12:11 12.6 °F /  -10.8 °C 1.0 °F /  -17.2 °C 30.56 in /  1034.8 hPa WNW 5.4 mph /  8.7 km/h 8.1 mph /  13 km/h 59 % 0.00 in /  0 mm
12:15 12.6 °F /  -10.8 °C 1.0 °F /  -17.2 °C 30.55 in /  1034.4 hPa West 4.7 mph /  7.6 km/h 7.0 mph /  11.3 km/h 59 % 0.00 in /  0 mm
12:20 12.8 °F /  -10.7 °C 1.2 °F /  -17.1 °C 30.54 in /  1034.1 hPa NW 2.0 mph /  3.2 km/h 8.1 mph /  13 km/h 59 % 0.00 in /  0 mm
12:25 13.1 °F /  -10.5 °C 1.4 °F /  -17 °C 30.54 in /  1034.1 hPa NNW 1.3 mph /  2.1 km/h 5.0 mph /  8 km/h 59 % 0.00 in /  0 mm
12:30 13.4 °F /  -10.3 °C 1.0 °F /  -17.2 °C 30.54 in /  1034.1 hPa WSW 3.3 mph /  5.3 km/h 5.8 mph /  9.3 km/h 57 % 0.00 in /  0 mm
12:35 13.7 °F /  -10.2 °C 1.3 °F /  -17.1 °C 30.54 in /  1034.1 hPa West 5.0 mph /  8 km/h 6.9 mph /  11.1 km/h 57 % 0.00 in /  0 mm
12:40 14.0 °F /  -10 °C 1.5 °F /  -16.9 °C 30.54 in /  1034.1 hPa NW 5.7 mph /  9.2 km/h 8.1 mph /  13 km/h 57 % 0.00 in /  0 mm
12:45 14.1 °F /  -9.9 °C 1.3 °F /  -17.1 °C 30.55 in /  1034.4 hPa WNW 3.6 mph /  5.8 km/h 6.0 mph /  9.7 km/h 56 % 0.00 in /  0 mm
12:48 14.1 °F /  -9.9 °C 1.3 °F /  -17.1 °C 30.54 in /  1034.1 hPa WSW 3.6 mph /  5.8 km/h 6.9 mph /  11.1 km/h 56 % 0.00 in /  0 mm
12:54 14.5 °F /  -9.7 °C 2.0 °F /  -16.7 °C 30.54 in /  1034.1 hPa WSW 1.2 mph /  1.9 km/h 9.2 mph /  14.8 km/h 57 % 0.00 in /  0 mm
12:59 14.9 °F /  -9.5 °C 2.4 °F /  -16.4 °C 30.55 in /  1034.4 hPa West 2.7 mph /  4.3 km/h 8.1 mph /  13 km/h 57 % 0.00 in /  0 mm
13:04 15.1 °F /  -9.4 °C 2.6 °F /  -16.3 °C 30.54 in /  1034.1 hPa SW 6.1 mph /  9.8 km/h 9.2 mph /  14.8 km/h 57 % 0.00 in /  0 mm
13:09 15.4 °F /  -9.2 °C 2.9 °F /  -16.2 °C 30.54 in /  1034.1 hPa SW 5.6 mph /  9 km/h 8.1 mph /  13 km/h 57 % 0.00 in /  0 mm
13:14 15.6 °F /  -9.1 °C 2.7 °F /  -16.3 °C 30.54 in /  1034.1 hPa SSW 4.2 mph /  6.8 km/h 6.0 mph /  9.7 km/h 56 % 0.00 in /  0 mm
13:19 15.7 °F /  -9.1 °C 2.4 °F /  -16.4 °C 30.54 in /  1034.1 hPa West 3.5 mph /  5.6 km/h 8.1 mph /  13 km/h 55 % 0.00 in /  0 mm
13:25 15.9 °F /  -8.9 °C 2.6 °F /  -16.3 °C 30.54 in /  1034.1 hPa SSW 4.9 mph /  7.9 km/h 9.2 mph /  14.8 km/h 55 % 0.00 in /  0 mm
13:30 16.1 °F /  -8.8 °C 2.7 °F /  -16.3 °C 30.53 in /  1033.7 hPa SW 5.2 mph /  8.4 km/h 8.1 mph /  13 km/h 55 % 0.00 in /  0 mm
13:31 16.2 °F /  -8.8 °C 2.8 °F /  -16.2 °C 30.53 in /  1033.7 hPa SSW 5.6 mph /  9 km/h 6.9 mph /  11.1 km/h 55 % 0.00 in /  0 mm
13:36 16.4 °F /  -8.7 °C 3.0 °F /  -16.1 °C 30.53 in /  1033.7 hPa West 1.9 mph /  3.1 km/h 8.0 mph /  12.9 km/h 55 % 0.00 in /  0 mm
13:41 16.5 °F /  -8.6 °C 2.7 °F /  -16.3 °C 30.53 in /  1033.7 hPa WSW 6.5 mph /  10.5 km/h 6.9 mph /  11.1 km/h 54 % 0.00 in /  0 mm
13:47 16.7 °F /  -8.5 °C 2.9 °F /  -16.2 °C 30.53 in /  1033.7 hPa WSW 3.8 mph /  6.1 km/h 10.4 mph /  16.7 km/h 54 % 0.00 in /  0 mm
13:49 16.8 °F /  -8.4 °C 2.6 °F /  -16.3 °C 30.53 in /  1033.7 hPa SW 6.7 mph /  10.8 km/h 9.2 mph /  14.8 km/h 53 % 0.00 in /  0 mm
13:55 16.9 °F /  -8.4 °C 2.3 °F /  -16.5 °C 30.52 in /  1033.4 hPa SW 4.1 mph /  6.6 km/h 6.9 mph /  11.1 km/h 52 % 0.00 in /  0 mm
14:01 17.2 °F /  -8.2 °C 2.6 °F /  -16.3 °C 30.52 in /  1033.4 hPa SSW 3.9 mph /  6.3 km/h 6.0 mph /  9.7 km/h 52 % 0.00 in /  0 mm
14:06 17.4 °F /  -8.1 °C 2.8 °F /  -16.2 °C 30.52 in /  1033.4 hPa SW 3.9 mph /  6.3 km/h 6.9 mph /  11.1 km/h 52 % 0.00 in /  0 mm
14:11 17.4 °F /  -8.1 °C 1.9 °F /  -16.7 °C 30.52 in /  1033.4 hPa West 4.3 mph /  6.9 km/h 8.1 mph /  13 km/h 50 % 0.00 in /  0 mm
14:12 17.4 °F /  -8.1 °C 1.9 °F /  -16.7 °C 30.51 in /  1033.1 hPa West 2.4 mph /  3.9 km/h 8.1 mph /  13 km/h 50 % 0.00 in /  0 mm
14:17 17.4 °F /  -8.1 °C 1.9 °F /  -16.7 °C 30.51 in /  1033.1 hPa WSW 4.1 mph /  6.6 km/h 8.1 mph /  13 km/h 50 % 0.00 in /  0 mm
14:22 17.3 °F /  -8.2 °C 2.2 °F /  -16.6 °C 30.52 in /  1033.4 hPa West 0.3 mph /  0.5 km/h 2.3 mph /  3.7 km/h 51 % 0.00 in /  0 mm
14:26 17.3 °F /  -8.2 °C 2.2 °F /  -16.6 °C 30.51 in /  1033.1 hPa SW 1.4 mph /  2.3 km/h 3.5 mph /  5.6 km/h 51 % 0.00 in /  0 mm
14:31 17.1 °F /  -8.3 °C 2.1 °F /  -16.6 °C 30.51 in /  1033.1 hPa West 2.4 mph /  3.9 km/h 3.5 mph /  5.6 km/h 51 % 0.00 in /  0 mm
14:37 16.9 °F /  -8.4 °C 1.9 °F /  -16.7 °C 30.51 in /  1033.1 hPa WNW 2.4 mph /  3.9 km/h 3.5 mph /  5.6 km/h 51 % 0.00 in /  0 mm
14:40 16.7 °F /  -8.5 °C 1.7 °F /  -16.8 °C 30.51 in /  1033.1 hPa West 2.5 mph /  4 km/h 4.0 mph /  6.4 km/h 51 % 0.00 in /  0 mm
14:45 16.5 °F /  -8.6 °C 1.5 °F /  -16.9 °C 30.50 in /  1032.7 hPa WSW 2.5 mph /  4 km/h 5.0 mph /  8 km/h 51 % 0.00 in /  0 mm
14:50 16.3 °F /  -8.7 °C 1.3 °F /  -17.1 °C 30.50 in /  1032.7 hPa WSW 2.2 mph /  3.5 km/h 3.5 mph /  5.6 km/h 51 % 0.00 in /  0 mm
14:55 16.2 °F /  -8.8 °C 1.6 °F /  -16.9 °C 30.51 in /  1033.1 hPa West 1.8 mph /  2.9 km/h 5.0 mph /  8 km/h 52 % 0.00 in /  0 mm
15:00 16.2 °F /  -8.8 °C 1.6 °F /  -16.9 °C 30.50 in /  1032.7 hPa West 2.3 mph /  3.7 km/h 4.6 mph /  7.4 km/h 52 % 0.00 in /  0 mm
15:05 16.2 °F /  -8.8 °C 2.0 °F /  -16.7 °C 30.50 in /  1032.7 hPa WSW 0.4 mph /  0.6 km/h 2.3 mph /  3.7 km/h 53 % 0.00 in /  0 mm
15:10 16.2 °F /  -8.8 °C 2.0 °F /  -16.7 °C 30.49 in /  1032.4 hPa WSW 0.5 mph /  0.8 km/h 4.0 mph /  6.4 km/h 53 % 0.00 in /  0 mm
15:15 16.1 °F /  -8.8 °C 1.9 °F /  -16.7 °C 30.50 in /  1032.7 hPa WSW 0.1 mph /  0.2 km/h 3.5 mph /  5.6 km/h 53 % 0.00 in /  0 mm
15:20 16.1 °F /  -8.8 °C 1.9 °F /  -16.7 °C 30.49 in /  1032.4 hPa WSW 2.3 mph /  3.7 km/h 3.5 mph /  5.6 km/h 53 % 0.00 in /  0 mm
15:22 16.2 °F /  -8.8 °C 2.0 °F /  -16.7 °C 30.49 in /  1032.4 hPa WSW 1.6 mph /  2.6 km/h 3.5 mph /  5.6 km/h 53 % 0.00 in /  0 mm
15:27 16.2 °F /  -8.8 °C 2.0 °F /  -16.7 °C 30.50 in /  1032.7 hPa WNW 3.0 mph /  4.8 km/h 4.6 mph /  7.4 km/h 53 % 0.00 in /  0 mm
15:32 16.2 °F /  -8.8 °C 2.0 °F /  -16.7 °C 30.50 in /  1032.7 hPa West 2.2 mph /  3.5 km/h 4.0 mph /  6.4 km/h 53 % 0.00 in /  0 mm
15:38 16.2 °F /  -8.8 °C 2.0 °F /  -16.7 °C 30.49 in /  1032.4 hPa WSW 1.3 mph /  2.1 km/h 2.3 mph /  3.7 km/h 53 % 0.00 in /  0 mm
15:43 16.2 °F /  -8.8 °C 2.0 °F /  -16.7 °C 30.49 in /  1032.4 hPa West 0.7 mph /  1.1 km/h 3.5 mph /  5.6 km/h 53 % 0.00 in /  0 mm
15:48 16.2 °F /  -8.8 °C 2.4 °F /  -16.4 °C 30.49 in /  1032.4 hPa West 3.5 mph /  5.6 km/h 6.9 mph /  11.1 km/h 54 % 0.00 in /  0 mm
15:53 16.3 °F /  -8.7 °C 2.1 °F /  -16.6 °C 30.49 in /  1032.4 hPa West 2.6 mph /  4.2 km/h 5.0 mph /  8 km/h 53 % 0.00 in /  0 mm
15:59 16.2 °F /  -8.8 °C 2.0 °F /  -16.7 °C 30.49 in /  1032.4 hPa Calm   1.2 mph /  1.9 km/h 53 % 0.00 in /  0 mm
16:04 16.2 °F /  -8.8 °C 2.4 °F /  -16.4 °C 30.49 in /  1032.4 hPa WSW 0.6 mph /  1 km/h 3.5 mph /  5.6 km/h 54 % 0.00 in /  0 mm
16:05 16.1 °F /  -8.8 °C 2.4 °F /  -16.4 °C 30.49 in /  1032.4 hPa WSW 0.2 mph /  0.3 km/h 3.5 mph /  5.6 km/h 54 % 0.00 in /  0 mm
16:10 16.1 °F /  -8.8 °C 2.7 °F /  -16.3 °C 30.49 in /  1032.4 hPa Calm     55 % 0.00 in /  0 mm
16:16 16.1 °F /  -8.8 °C 2.7 °F /  -16.3 °C 30.49 in /  1032.4 hPa WSW 1.0 mph /  1.6 km/h 2.0 mph /  3.2 km/h 55 % 0.00 in /  0 mm
16:21 16.1 °F /  -8.8 °C 3.1 °F /  -16.1 °C 30.48 in /  1032.1 hPa Calm     56 % 0.00 in /  0 mm
16:23 16.0 °F /  -8.9 °C 3.0 °F /  -16.1 °C 30.49 in /  1032.4 hPa Calm     56 % 0.00 in /  0 mm
16:33 15.8 °F /  -9 °C 2.9 °F /  -16.2 °C 30.49 in /  1032.4 hPa Calm   1.2 mph /  1.9 km/h 56 % 0.00 in /  0 mm
16:39 15.7 °F /  -9.1 °C 3.1 °F /  -16.1 °C 30.48 in /  1032.1 hPa Calm     57 % 0.00 in /  0 mm
16:44 15.6 °F /  -9.1 °C 3.1 °F /  -16.1 °C 30.48 in /  1032.1 hPa Calm     57 % 0.00 in /  0 mm
16:49 15.5 °F /  -9.2 °C 3.0 °F /  -16.1 °C 30.49 in /  1032.4 hPa Calm     57 % 0.00 in /  0 mm
16:54 15.4 °F /  -9.2 °C 3.2 °F /  -16 °C 30.48 in /  1032.1 hPa Calm     58 % 0.00 in /  0 mm
16:59 15.2 °F /  -9.3 °C 3.4 °F /  -15.9 °C 30.48 in /  1032.1 hPa WSW 0.2 mph /  0.3 km/h 2.0 mph /  3.2 km/h 59 % 0.00 in /  0 mm
17:05 15.0 °F /  -9.4 °C 3.6 °F /  -15.8 °C 30.48 in /  1032.1 hPa WSW 1.9 mph /  3.1 km/h 3.5 mph /  5.6 km/h 60 % 0.00 in /  0 mm
17:09 15.0 °F /  -9.4 °C 3.6 °F /  -15.8 °C 30.48 in /  1032.1 hPa SW 2.4 mph /  3.9 km/h 3.5 mph /  5.6 km/h 60 % 0.00 in /  0 mm
17:14 14.9 °F /  -9.5 °C 3.9 °F /  -15.6 °C 30.48 in /  1032.1 hPa SSW 1.2 mph /  1.9 km/h 5.8 mph /  9.3 km/h 61 % 0.00 in /  0 mm
17:19 15.0 °F /  -9.4 °C 4.0 °F /  -15.6 °C 30.47 in /  1031.7 hPa SSW 2.1 mph /  3.4 km/h 8.1 mph /  13 km/h 61 % 0.00 in /  0 mm
17:25 15.0 °F /  -9.4 °C 4.3 °F /  -15.4 °C 30.48 in /  1032.1 hPa SW 1.3 mph /  2.1 km/h 3.5 mph /  5.6 km/h 62 % 0.00 in /  0 mm
17:30 15.1 °F /  -9.4 °C 4.4 °F /  -15.3 °C 30.48 in /  1032.1 hPa SSW 3.5 mph /  5.6 km/h 5.0 mph /  8 km/h 62 % 0.00 in /  0 mm
17:35 15.2 °F /  -9.3 °C 4.5 °F /  -15.3 °C 30.48 in /  1032.1 hPa SSW 1.2 mph /  1.9 km/h 3.0 mph /  4.8 km/h 62 % 0.00 in /  0 mm
17:40 15.2 °F /  -9.3 °C 4.5 °F /  -15.3 °C 30.47 in /  1031.7 hPa SW 0.7 mph /  1.1 km/h 2.3 mph /  3.7 km/h 62 % 0.00 in /  0 mm
17:45 15.3 °F /  -9.3 °C 4.6 °F /  -15.2 °C 30.47 in /  1031.7 hPa SW 1.3 mph /  2.1 km/h 3.5 mph /  5.6 km/h 62 % 0.00 in /  0 mm
17:47 15.3 °F /  -9.3 °C 4.6 °F /  -15.2 °C 30.47 in /  1031.7 hPa SW 2.6 mph /  4.2 km/h 5.8 mph /  9.3 km/h 62 % 0.00 in /  0 mm
17:52 15.3 °F /  -9.3 °C 4.6 °F /  -15.2 °C 30.46 in /  1031.4 hPa SW 1.8 mph /  2.9 km/h 3.5 mph /  5.6 km/h 62 % 0.00 in /  0 mm
17:57 15.3 °F /  -9.3 °C 4.6 °F /  -15.2 °C 30.47 in /  1031.7 hPa South 2.0 mph /  3.2 km/h 5.8 mph /  9.3 km/h 62 % 0.00 in /  0 mm
18:02 15.3 °F /  -9.3 °C 4.6 °F /  -15.2 °C 30.46 in /  1031.4 hPa SSW 2.7 mph /  4.3 km/h 5.8 mph /  9.3 km/h 62 % 0.00 in /  0 mm
18:08 15.3 °F /  -9.3 °C 4.6 °F /  -15.2 °C 30.46 in /  1031.4 hPa SSW 2.1 mph /  3.4 km/h 3.5 mph /  5.6 km/h 62 % 0.00 in /  0 mm
18:13 15.2 °F /  -9.3 °C 4.5 °F /  -15.3 °C 30.46 in /  1031.4 hPa WSW 0.3 mph /  0.5 km/h 3.5 mph /  5.6 km/h 62 % 0.00 in /  0 mm
18:18 15.2 °F /  -9.3 °C 4.5 °F /  -15.3 °C 30.46 in /  1031.4 hPa SW 1.6 mph /  2.6 km/h 3.5 mph /  5.6 km/h 62 % 0.00 in /  0 mm
18:23 15.2 °F /  -9.3 °C 4.9 °F /  -15.1 °C 30.46 in /  1031.4 hPa SSW 2.9 mph /  4.7 km/h 8.0 mph /  12.9 km/h 63 % 0.00 in /  0 mm
18:28 15.2 °F /  -9.3 °C 4.9 °F /  -15.1 °C 30.46 in /  1031.4 hPa SW 4.3 mph /  6.9 km/h 5.8 mph /  9.3 km/h 63 % 0.00 in /  0 mm
18:34 15.2 °F /  -9.3 °C 4.9 °F /  -15.1 °C 30.46 in /  1031.4 hPa WSW 5.1 mph /  8.2 km/h 8.1 mph /  13 km/h 63 % 0.00 in /  0 mm
18:39 15.2 °F /  -9.3 °C 4.9 °F /  -15.1 °C 30.46 in /  1031.4 hPa SW 1.7 mph /  2.7 km/h 5.8 mph /  9.3 km/h 63 % 0.00 in /  0 mm
18:44 15.2 °F /  -9.3 °C 4.9 °F /  -15.1 °C 30.45 in /  1031 hPa SSW 2.8 mph /  4.5 km/h 4.6 mph /  7.4 km/h 63 % 0.00 in /  0 mm
18:49 15.2 °F /  -9.3 °C 4.9 °F /  -15.1 °C 30.45 in /  1031 hPa SW 1.1 mph /  1.8 km/h 2.3 mph /  3.7 km/h 63 % 0.00 in /  0 mm
18:54 15.2 °F /  -9.3 °C 4.9 °F /  -15.1 °C 30.44 in /  1030.7 hPa SW 4.5 mph /  7.2 km/h 4.6 mph /  7.4 km/h 63 % 0.00 in /  0 mm
19:00 15.2 °F /  -9.3 °C 4.9 °F /  -15.1 °C 30.44 in /  1030.7 hPa SW 4.4 mph /  7.1 km/h 7.0 mph /  11.3 km/h 63 % 0.00 in /  0 mm
19:05 15.2 °F /  -9.3 °C 4.9 °F /  -15.1 °C 30.44 in /  1030.7 hPa SW 3.9 mph /  6.3 km/h 5.8 mph /  9.3 km/h 63 % 0.00 in /  0 mm
19:10 15.3 °F /  -9.3 °C 4.9 °F /  -15.1 °C 30.45 in /  1031 hPa SW 1.5 mph /  2.4 km/h 4.6 mph /  7.4 km/h 63 % 0.00 in /  0 mm
19:12 15.3 °F /  -9.3 °C 4.9 °F /  -15.1 °C 30.45 in /  1031 hPa SSW 2.1 mph /  3.4 km/h 4.0 mph /  6.4 km/h 63 % 0.00 in /  0 mm
19:17 15.4 °F /  -9.2 °C 5.0 °F /  -15 °C 30.45 in /  1031 hPa SSW 5.2 mph /  8.4 km/h 7.0 mph /  11.3 km/h 63 % 0.00 in /  0 mm
19:23 15.5 °F /  -9.2 °C 5.1 °F /  -14.9 °C 30.44 in /  1030.7 hPa SSW 4.4 mph /  7.1 km/h 10.4 mph /  16.7 km/h 63 % 0.00 in /  0 mm
19:28 15.7 °F /  -9.1 °C 5.3 °F /  -14.8 °C 30.44 in /  1030.7 hPa SSW 4.1 mph /  6.6 km/h 5.8 mph /  9.3 km/h 63 % 0.00 in /  0 mm
19:33 15.8 °F /  -9 °C 5.4 °F /  -14.8 °C 30.44 in /  1030.7 hPa SW 6.6 mph /  10.6 km/h 9.0 mph /  14.5 km/h 63 % 0.00 in /  0 mm
19:38 15.9 °F /  -8.9 °C 5.2 °F /  -14.9 °C 30.44 in /  1030.7 hPa SW 2.7 mph /  4.3 km/h 6.9 mph /  11.1 km/h 62 % 0.00 in /  0 mm
19:43 16.0 °F /  -8.9 °C 5.3 °F /  -14.8 °C 30.43 in /  1030.4 hPa SW 4.3 mph /  6.9 km/h 4.6 mph /  7.4 km/h 62 % 0.00 in /  0 mm
19:48 16.1 °F /  -8.8 °C 5.4 °F /  -14.8 °C 30.43 in /  1030.4 hPa SW 3.2 mph /  5.1 km/h 6.9 mph /  11.1 km/h 62 % 0.00 in /  0 mm
19:53 16.2 °F /  -8.8 °C 5.5 °F /  -14.7 °C 30.43 in /  1030.4 hPa SW 5.4 mph /  8.7 km/h 7.0 mph /  11.3 km/h 62 % 0.00 in /  0 mm
19:58 16.2 °F /  -8.8 °C 5.5 °F /  -14.7 °C 30.43 in /  1030.4 hPa SW 3.5 mph /  5.6 km/h 10.4 mph /  16.7 km/h 62 % 0.00 in /  0 mm
20:03 16.2 °F /  -8.8 °C 5.1 °F /  -14.9 °C 30.43 in /  1030.4 hPa SW 2.0 mph /  3.2 km/h 9.0 mph /  14.5 km/h 61 % 0.00 in /  0 mm
20:09 16.3 °F /  -8.7 °C 5.2 °F /  -14.9 °C 30.43 in /  1030.4 hPa WSW 4.0 mph /  6.4 km/h 6.9 mph /  11.1 km/h 61 % 0.00 in /  0 mm
20:14 16.3 °F /  -8.7 °C 5.2 °F /  -14.9 °C 30.43 in /  1030.4 hPa SSW 4.0 mph /  6.4 km/h 7.0 mph /  11.3 km/h 61 % 0.00 in /  0 mm
20:19 16.3 °F /  -8.7 °C 5.2 °F /  -14.9 °C 30.43 in /  1030.4 hPa SW 6.7 mph /  10.8 km/h 12.7 mph /  20.4 km/h 61 % 0.00 in /  0 mm
20:23 16.3 °F /  -8.7 °C 5.2 °F /  -14.9 °C 30.42 in /  1030 hPa SW 5.0 mph /  8 km/h 8.0 mph /  12.9 km/h 61 % 0.00 in /  0 mm
20:28 16.3 °F /  -8.7 °C 5.2 °F /  -14.9 °C 30.42 in /  1030 hPa SW 4.6 mph /  7.4 km/h 8.1 mph /  13 km/h 61 % 0.00 in /  0 mm
20:33 16.3 °F /  -8.7 °C 5.2 °F /  -14.9 °C 30.42 in /  1030 hPa SW 3.1 mph /  5 km/h 7.0 mph /  11.3 km/h 61 % 0.00 in /  0 mm
20:38 16.2 °F /  -8.8 °C 5.1 °F /  -14.9 °C 30.42 in /  1030 hPa WSW 3.8 mph /  6.1 km/h 6.9 mph /  11.1 km/h 61 % 0.00 in /  0 mm
20:43 16.2 °F /  -8.8 °C 5.5 °F /  -14.7 °C 30.42 in /  1030 hPa SSW 2.3 mph /  3.7 km/h 10.4 mph /  16.7 km/h 62 % 0.00 in /  0 mm
20:48 16.2 °F /  -8.8 °C 5.5 °F /  -14.7 °C 30.42 in /  1030 hPa West 4.1 mph /  6.6 km/h 5.8 mph /  9.3 km/h 62 % 0.00 in /  0 mm
20:54 16.2 °F /  -8.8 °C 5.1 °F /  -14.9 °C 30.42 in /  1030 hPa WSW 3.8 mph /  6.1 km/h 6.9 mph /  11.1 km/h 61 % 0.00 in /  0 mm
20:59 16.2 °F /  -8.8 °C 5.1 °F /  -14.9 °C 30.42 in /  1030 hPa SW 5.9 mph /  9.5 km/h 9.0 mph /  14.5 km/h 61 % 0.00 in /  0 mm
21:01 16.3 °F /  -8.7 °C 5.2 °F /  -14.9 °C 30.42 in /  1030 hPa SW 2.6 mph /  4.2 km/h 9.2 mph /  14.8 km/h 61 % 0.00 in /  0 mm
21:06 16.4 °F /  -8.7 °C 5.3 °F /  -14.8 °C 30.41 in /  1029.7 hPa SW 2.2 mph /  3.5 km/h 8.1 mph /  13 km/h 61 % 0.00 in /  0 mm
21:11 16.5 °F /  -8.6 °C 5.4 °F /  -14.8 °C 30.40 in /  1029.3 hPa WSW 6.6 mph /  10.6 km/h 10.4 mph /  16.7 km/h 61 % 0.00 in /  0 mm
21:16 16.6 °F /  -8.6 °C 5.5 °F /  -14.7 °C 30.40 in /  1029.3 hPa SW 4.6 mph /  7.4 km/h 9.2 mph /  14.8 km/h 61 % 0.00 in /  0 mm
21:22 16.7 °F /  -8.5 °C 5.6 °F /  -14.7 °C 30.41 in /  1029.7 hPa WSW 5.5 mph /  8.9 km/h 9.2 mph /  14.8 km/h 61 % 0.00 in /  0 mm
21:27 16.7 °F /  -8.5 °C 5.6 °F /  -14.7 °C 30.40 in /  1029.3 hPa SW 2.7 mph /  4.3 km/h 6.9 mph /  11.1 km/h 61 % 0.00 in /  0 mm
21:32 16.8 °F /  -8.4 °C 5.7 °F /  -14.6 °C 30.40 in /  1029.3 hPa SW 4.1 mph /  6.6 km/h 9.2 mph /  14.8 km/h 61 % 0.00 in /  0 mm
21:37 16.9 °F /  -8.4 °C 5.8 °F /  -14.6 °C 30.40 in /  1029.3 hPa SW 5.5 mph /  8.9 km/h 8.1 mph /  13 km/h 61 % 0.00 in /  0 mm
21:43 17.0 °F /  -8.3 °C 5.9 °F /  -14.5 °C 30.40 in /  1029.3 hPa SW 0.9 mph /  1.4 km/h 8.1 mph /  13 km/h 61 % 0.00 in /  0 mm
21:47 17.0 °F /  -8.3 °C 5.9 °F /  -14.5 °C 30.40 in /  1029.3 hPa WSW 5.1 mph /  8.2 km/h 11.5 mph /  18.5 km/h 61 % 0.00 in /  0 mm
21:53 17.1 °F /  -8.3 °C 5.9 °F /  -14.5 °C 30.39 in /  1029 hPa SW 4.8 mph /  7.7 km/h 7.0 mph /  11.3 km/h 61 % 0.00 in /  0 mm
21:59 17.2 °F /  -8.2 °C 6.0 °F /  -14.4 °C 30.40 in /  1029.3 hPa SSW 3.6 mph /  5.8 km/h 8.1 mph /  13 km/h 61 % 0.00 in /  0 mm
22:04 17.3 °F /  -8.2 °C 6.1 °F /  -14.4 °C 30.40 in /  1029.3 hPa SW 1.8 mph /  2.9 km/h 6.9 mph /  11.1 km/h 61 % 0.00 in /  0 mm
22:09 17.4 °F /  -8.1 °C 6.2 °F /  -14.3 °C 30.40 in /  1029.3 hPa SW 5.7 mph /  9.2 km/h 9.2 mph /  14.8 km/h 61 % 0.00 in /  0 mm
22:16 17.5 °F /  -8.1 °C 6.3 °F /  -14.3 °C 30.40 in /  1029.3 hPa SSW 5.1 mph /  8.2 km/h 11.5 mph /  18.5 km/h 61 % 0.00 in /  0 mm
22:21 17.7 °F /  -7.9 °C 6.9 °F /  -13.9 °C 30.40 in /  1029.3 hPa SW 6.4 mph /  10.3 km/h 13.0 mph /  20.9 km/h 62 % 0.00 in /  0 mm
22:29 17.9 °F /  -7.8 °C 7.1 °F /  -13.8 °C 30.40 in /  1029.3 hPa SW 7.0 mph /  11.3 km/h 11.5 mph /  18.5 km/h 62 % 0.00 in /  0 mm
22:41 18.1 °F /  -7.7 °C 7.3 °F /  -13.7 °C 30.39 in /  1029 hPa SW 7.1 mph /  11.4 km/h 14.0 mph /  22.5 km/h 62 % 0.00 in /  0 mm
23:02 18.2 °F /  -7.7 °C 7.0 °F /  -13.9 °C 30.39 in /  1029 hPa SW 7.1 mph /  11.4 km/h 17.3 mph /  27.8 km/h 61 % 0.00 in /  0 mm
23:32 17.6 °F /  -8 °C 6.4 °F /  -14.2 °C 30.37 in /  1028.3 hPa SSW 6.7 mph /  10.8 km/h 15.0 mph /  24.1 km/h 61 % 0.00 in /  0 mm
23:48 17.6 °F /  -8 °C 6.8 °F /  -14 °C 30.37 in /  1028.3 hPa SW 4.2 mph /  6.8 km/h 15.0 mph /  24.1 km/h 62 % 0.00 in /  0 mm
23:54 17.6 °F /  -8 °C 7.1 °F /  -13.8 °C 30.36 in /  1028 hPa SSW 6.1 mph /  9.8 km/h 12.7 mph /  20.4 km/h 63 % 0.00 in /  0 mm
Crab Meadow Weather
Compliments of Weather Underground - 3 mb

Script developed by  Jim McMurry - jmcmurry@mwt.net Adapted for the template by  Wim van der Kuil - Leuven-Template.eu

One Inch of Rain: One inch of rain over one square mile equals to 17.4 million gallons of water.